Showing default

ORBCOMM FM 114, 41179

Orbit data source: Space-Track

ORBCOMM FM 114, 41179 is a payload satellite owned by Orbcomm (US) in LEO that was launched on Tue, 22 Dec 2015 UTC via an FALCON 9 launch vehicle from the Air Force Eastern Test Range (AFETR). Payloads include a variety of satellites, spacecraft, and rockets equipped with specific instruments for various scientific and technological missions. These include communications satellites like Starlink; space stations such as the ISS; scientific satellites like the Hubble; Earth observation satellites from companies like Planet Labs, Umbra, and HawkEye 360; GPS; miniature CubeSats for education and research; and military/defense satellites.

Loading next visibility...
ORBCOMM FM 114 details
Identifier
41179, 2015-081A
Orbit
LEO
Last TLE update11 hours ago
Origin
Flag of USOrbcomm (US / ORB)
ManufacturerSNC Louisville
MissionOperational Commercial Communications
Bus & MotorSN-100A, Unknown motor
Mass172 kg wet, 158 kg dry
Launch date (UTC)
2015-12-22 (9 years ago)
Launch vehicle
FALCON 9
Launch site
Air Force Eastern Test Range (AFETR)
Object type
Payload
Rocket body
Debris
Shape & HBRBox + 1 Pan + 1 Ant, 13 m
Radar Cross Section2.222 m², Medium (>0.1 m² and < 1m²)

Expand to show TLE details & history

TLE from 11 hours ago
0 ORBCOMM FM 114
1 41179U 15081A   24348.69993025  .00001615  00000-0  38787-3 0  9990
2 41179  47.0032  82.5931 0003042 235.2346 124.8253 14.57614354477454
Epoch: 2024-12-13T16:47Z
Definitive object data (Epoch: 2024-12-13T16:47:53.973Z)
Latitude-0.00004°
Longitude107.75603°
Altitude702.333 km
Speed7.506 km/s
True Right ascension05h 30m 22s
True Declination0° 00' 00"
Sunlit
Object was in full shadow at TLE epoch
Visualization TLE readout
Latitude26.15819°
Longitude-101.41079°
Altitude701.507 km
Speed7.509 km/s
Apparent Right ascension14h 49m 34s
Apparent Declination-5° 01' 45"
Sunlit
Object is in daylight
Visualization observer readout
Local Sidereal Time01:52:03
Azimuth335.855° NNW
Elevation-52.782°
Doppler factor1
Orbital elements
Apogee altitude704.275 km
Perigee altitude699.968 km
Semi-major axis7,080.258 km
Eccentricity0.0003042
Inclination47.0032°
RAAN82.5931°
Arg. of periapsis235.2346°
True anomaly124.85391°
Mean anomaly124.8253°
Eccentric anomaly124.83961°
Mean motion3.64309 °/min
BSTAR0.00038787
Orbital period98.82 mins
Loading maneuver chart data...
Loading historical data...
Loading historical data...
Loading historical data...
Loading historical data...
Loading historical data...
Loading historical data...
Loading historical data...

ORBCOMM FM 114 Visibility forecast

Observer location: undefined°, undefined

Span
Click to sort rows by Start time (UTC) header in descending order
Start Az.
Max El. time (UTC)
Max El. Az.
Max El.
End time (UTC)
End Az.
8 mins2024-12-14 09:26:20.983Z218.807° SW2024-12-14 09:30:20.983Z128.104° SE39.453°2024-12-14 09:34:20.983Z69.109° E
8 mins2024-12-14 11:10:20.983Z274.687° WNW2024-12-14 11:13:20.983Z328.954° NNW36.601°2024-12-14 11:18:20.983Z57.861° ENE
7 mins2024-12-14 12:55:20.983Z310.547° NW2024-12-14 12:58:20.983Z13.95° NNE30.553°2024-12-14 13:02:20.983Z69.816° E
8 mins2024-12-14 14:38:20.983Z303.561° NW2024-12-14 14:42:20.983Z40.923° NE42.024°2024-12-14 14:46:20.983Z104.269° ESE
7 mins2024-12-14 16:22:20.983Z275.504° WNW2024-12-14 16:25:20.983Z223.898° SW29.335°2024-12-14 16:29:20.983Z159.659° S
|